Track COSMOS 1709 now! 10-day predictions COSMOS 1709 is classified as:
1 16368U 85116A 22187.50363902 .00000042 00000-0 27619-4 0 9998 2 16368 82.9458 99.9955 0034788 181.4261 351.7321 13.74514857832775